Snowfall_Accumulation
0.0 0.0 0.0 0.0 0.0 0.0 0.0 0.0 0.0 0.0 0.0 0.0 0.0 0.0 0.0 0.0 0.0 0.0 0.0 0.0 0.0 0.0 0.0 0.0 0.0 0.0 0.0 0.0 0.0 0.0 0.0 0.0 0.0 0.0 0.0 0.0 0.0 0.0
0.0 0.0 0.0 0.0 0.0 0.0 0.0 0.0 0.0 0.0 0.0 0.0 0.4 0.0 0.0 0.0 0.0 0.0 0.0 0.0 0.0 0.0 0.0 0.0 0.0 0.0 0.0 0.0 0.0 0.0 0.0 0.0 0.0 0.0 0.0 0.0 0.0 0.0
0.0 0.0 0.0 0.0 0.0 0.0 0.0 0.2 0.2 0.0 0.0 1.8 1.1 0.0 0.0 0.0 0.0 0.0 0.0 0.0 0.0 0.0 0.0 0.0 0.0 0.0 0.0 0.0 0.0 0.0 0.0 0.0 0.0 0.0 0.0 0.0 0.0 0.0
0.0 0.0 0.0 0.0 0.0 0.9 0.0 0.5 0.2 1.8 1.5 0.6 0.1 0.0 0.0 0.0 0.0 0.0 0.0 0.0 0.0 0.0 0.0 0.0 0.0 0.0 0.0 0.0 0.1 0.0 0.0 0.0 0.0 0.0 0.0 0.0 0.0 0.0
0.0 0.0 0.0 0.0 0.0 0.8 0.4 0.2 0.9 0.4 0.5 0.8 0.1 0.0 0.0 0.0 0.0 0.0 0.0 0.0 0.0 0.0 0.0 0.0 0.0 0.0 0.0 0.0 0.0 0.4 0.2 0.0 0.0 0.0 0.0 0.0 0.0 0.0
0.0 0.0 0.8 1.4 0.0 0.6 1.0 0.6 0.3 0.5 0.4 0.4 0.1 1.2 0.3 0.1 0.4 0.2 0.0 0.0 0.0 0.0 0.0 0.0 0.0 0.0 0.0 0.0 0.0 0.0 0.0 0.0 0.0 0.1 0.0 0.0 0.0 0.0
1.5 1.5 1.5 0.9 0.0 0.0 0.2 0.2 0.4 0.5 2.0 3.9 2.7 1.7 1.4 0.0 0.0 0.0 0.1 0.0 0.1 0.0 0.0 0.0 0.0 0.0 0.0 0.0 0.0 0.0 0.0 0.1 0.1 0.2 0.2 0.1 0.2 0.0
2.6 1.5 2.2 1.9 0.3 0.2 0.2 0.2 0.5 1.6 3.7 4.6 4.6 0.9 0.1 0.1 0.0 0.2 1.3 1.3 1.4 0.0 0.2 0.2 0.0 0.0 0.0 0.0 0.0 0.0 0.1 0.2 0.0 0.5 0.6 0.7 0.0 0.0
2.0 1.6 0.8 0.7 0.4 0.0 0.0 0.3 1.1 2.8 2.9 1.6 0.5 0.3 0.4 0.1 1.9 2.5 1.8 3.3 2.3 0.0 0.3 0.4 0.0 0.0 0.0 0.0 0.0 0.0 0.1 0.1 0.2 0.4 0.7 0.6 0.7 0.0
0.0 0.1 0.1 0.1 0.1 0.2 0.6 2.5 0.9 0.5 0.0 0.1 0.2 0.4 1.1 0.7 1.4 2.6 3.4 2.0 0.4 0.1 0.3 1.8 0.2 0.1 0.0 0.0 0.0 0.0 0.0 0.2 0.4 0.7 0.7 0.7 0.8 0.6
0.0 0.0 0.3 0.0 0.1 0.8 2.7 2.0 0.2 0.0 0.0 0.0 0.6 0.5 0.3 0.0 0.0 2.3 2.8 3.1 2.1 0.2 0.1 0.7 0.3 0.4 0.2 0.1 0.0 0.0 0.4 0.1 0.6 0.4 0.6 0.4 0.6 0.3
0.0 0.2 0.0 0.0 0.4 2.7 0.8 0.2 0.6 0.0 1.2 0.6 0.1 0.1 0.0 0.0 0.0 0.6 5.4 10.4 5.2 3.6 0.1 4.3 1.7 1.4 5.1 2.1 1.7 1.4 0.1 0.0 0.0 0.1 0.3 0.5 0.4 0.7
0.8 0.0 0.0 0.2 2.5 0.8 0.2 0.1 0.2 0.5 0.3 0.1 0.0 0.0 0.0 0.0 0.2 0.6 2.4 8.9 11.5 7.1 0.2 8.8 10.0 1.2 8.4 5.3 3.5 3.7 2.9 0.1 0.2 0.0 0.0 0.4 0.7 0.8
0.3 0.1 0.7 1.9 0.0 0.0 0.0 0.1 0.4 0.4 0.0 0.1 0.2 0.2 0.2 0.2 0.2 0.2 0.3 2.2 4.3 8.6 2.8 4.2 17.7 9.4 12.4 8.7 4.8 5.1 2.6 3.9 2.4 1.4 0.6 0.6 0.6 1.2
0.1 1.4 1.0 0.0 0.0 0.0 0.1 0.0 0.0 0.1 0.8 1.9 1.2 0.5 0.8 1.6 2.3 2.9 5.6 5.6 6.3 7.3 8.6 7.8 11.7 10.5 11.6 10.7 7.6 4.9 6.7 6.1 4.7 6.5 4.5 2.2 3.0 1.7
1.6 0.8 0.0 0.0 0.0 0.0 0.0 0.1 0.0 0.3 2.2 3.9 3.3 2.8 4.0 5.4 5.7 7.1 10.6 9.2 10.3 8.2 6.5 6.2 7.6 9.1 9.1 5.1 8.4 7.2 5.8 10.6 10.3 9.9 9.6 5.0 1.7 0.9
0.6 0.0 0.0 0.0 0.0 0.0 0.0 0.0 0.0 0.3 2.4 2.5 3.7 3.9 4.2 6.3 6.7 8.4 11.8 11.2 10.3 7.4 5.8 6.0 5.7 4.0 4.4 5.7 8.5 5.9 9.7 8.3 10.9 14.8 12.5 6.8 5.2 2.2
0.0 0.0 0.0 0.1 0.1 0.1 0.7 0.9 1.1 1.4 3.2 5.1 5.9 6.3 8.1 10.0 12.5 13.8 13.9 12.7 11.5 8.2 9.2 6.6 6.7 7.5 8.0 5.6 9.9 12.4 10.9 11.6 14.2 16.0 13.5 7.9 7.1 4.2
0.0 0.2 0.1 0.5 0.6 1.0 1.5 2.7 3.4 3.5 6.1 8.0 8.9 9.0 11.2 13.8 15.3 13.8 12.5 11.0 9.4 8.1 6.6 6.3 8.6 11.0 12.8 8.0 7.0 10.0 15.9 14.5 12.0 12.8 13.6 8.8 8.7 7.0
0.2 2.4 0.4 1.0 1.5 2.6 3.6 5.5 7.0 7.0 6.0 8.2 9.4 13.4 15.0 18.4 17.0 14.4 11.3 10.3 9.8 7.5 6.6 5.3 5.9 8.9 15.6 14.4 13.1 11.9 12.1 14.8 13.1 13.7 11.7 10.1 9.9 0.0
0.4 2.9 2.8 1.9 3.4 4.0 4.3 6.2 7.6 10.2 12.6 13.7 13.4 16.6 16.7 18.8 15.0 10.1 9.0 6.5 7.8 8.2 8.0 5.3 5.4 6.7 9.8 9.9 10.5 9.1 11.9 10.8 9.3 17.1 14.3 11.6 9.0 7.6
1.4 2.1 2.6 3.3 3.3 4.1 5.7 8.4 13.4 16.2 17.1 13.0 16.7 17.7 15.6 14.4 12.7 9.6 8.2 9.4 7.5 6.6 6.9 6.1 7.9 9.1 8.3 9.4 8.9 7.7 8.8 9.2 8.1 7.8 6.5 11.2 15.5 16.8
2.0 1.3 2.7 3.8 3.9 5.1 6.9 13.9 16.0 17.0 16.2 17.8 17.0 15.3 13.4 11.4 7.1 7.8 8.4 8.5 9.3 10.3 8.4 8.2 8.1 7.8 6.9 8.7 8.4 7.9 6.3 7.8 6.4 5.9 9.4 4.2 4.6 6.2